Back to catalog

ATLAS 5 CENTAUR DEB

LostHEO
NORAD 49369·DEBRIS·🇺🇸 United States

Launched Oct 17, 2018 from Cape Canaveral Space Force Station

Loading…

Next Passes (next 24 hours)

TLE

StaleSource: Space-Track

Epoch: Oct 1, 2023, 23:33 UTC

1 49369U 18079FW  23274.98148306 -.00000057  00000-0  00000-0 0  9996
2 49369  10.8918 136.5961 4649666 117.3734 297.1126  1.76979014 13611

Track ATLAS 5 CENTAUR DEB in real time with AllMySat

Download on the App Store